This is the latest recevied weather packets stored in our database for station/object K4JOZ. If no packets are shown the sender has not sent any weather packets the latest 10 day(s).
| Time | Temp. | Humidity | Pressure | Rain* | Wind** | Luminosity | Snow |
|---|---|---|---|---|---|---|---|
| 1778021569 | 22.22° C | 56% | 1008.7 hPa | 0 mm | - | - | - |
| 1778020669 | 22.22° C | 54% | 1008.8 hPa | 0 mm | - | - | - |
| 1778019769 | 22.78° C | 52% | 1008.9 hPa | 0 mm | - | - | - |
| 1778018869 | 23.33° C | 51% | 1008.9 hPa | 0 mm | - | - | - |
| 1778017969 | 22.78° C | 52% | 1008.9 hPa | 0 mm | - | - | - |
| 1778017069 | 23.33° C | 47% | 1008.8 hPa | 0 mm | - | - | - |
| 1778016169 | 23.89° C | 49% | 1008.9 hPa | 0 mm | - | - | - |
| 1778015269 | 22.78° C | 51% | 1008.9 hPa | 0 mm | - | - | - |
| 1778014369 | 23.89° C | 50% | 1009.1 hPa | 0 mm | - | - | - |
| 1778013469 | 23.89° C | 49% | 1009.1 hPa | 0 mm | - | - | - |
| 1778012569 | 23.89° C | 47% | 1009.3 hPa | 0 mm | - | - | - |
| 1778011669 | 23.89° C | 47% | 1009.5 hPa | 0 mm | - | - | - |
| 1778010769 | 23.33° C | 47% | 1009.7 hPa | 0 mm | - | - | - |
| 1778009869 | 23.33° C | 49% | 1010 hPa | 0 mm | - | - | - |
| 1778008969 | 23.33° C | 52% | 1010.3 hPa | 0 mm | - | - | - |
| 1778008069 | 22.78° C | 49% | 1010.5 hPa | 0 mm | - | - | - |
| 1778007169 | 23.33° C | 47% | 1010.7 hPa | 0 mm | - | - | - |
| 1778006269 | 23.33° C | 46% | 1011.2 hPa | 0 mm | - | - | - |
| 1778005369 | 23.33° C | 48% | 1011.3 hPa | 0 mm | - | - | - |
| 1778004469 | 23.33° C | 47% | 1011.3 hPa | 0 mm | - | - | - |
| 1778003569 | 23.33° C | 46% | 1011.4 hPa | 0 mm | - | - | - |
| 1778002669 | 23.33° C | 47% | 1011.8 hPa | 0 mm | - | - | - |
| 1778001769 | 23.33° C | 46% | 1012.1 hPa | 0 mm | - | - | - |
| 1778000869 | 22.78° C | 48% | 1012.3 hPa | 0 mm | - | - | - |
| 1777999969 | 22.78° C | 47% | 1012.5 hPa | 0 mm | - | - | - |
* Rain latest hour (hover to see other rain measurements)
** Current wind speed in m/s (hover to see current wind gust speed)